Middlebury State AP, Middlebu, VT

7:48 AM EST on November 17, 2019 (GMT -0500)
Middlebury State AP, Middlebu

Weather History for K6B0 - June, 2019

Change the Weather History Date:

Wednesday, June 5, 2019

  Actual Average (KRUT) Record (KRUT)
Temperature  
Mean Temperature 59 °F -  
Max Temperature 69 °F 74 °F 89 °F (1967)
Min Temperature 49 °F 49 °F 33 °F (1990)
Degree Days  
Heating Degree Days 6    
Growing Degree Days 9 (Base 50)    
Moisture  
Dew Point 54 °F    
Average Humidity 90    
Maximum Humidity 98    
Minimum Humidity 63    
Precipitation  
Precipitation 1.09 in - - ()
Sea Level Pressure  
Sea Level Pressure 29.80 in    
Wind  
Wind Speed 2 mph (SSE)    
Max Wind Speed 7 mph    
Max Gust Speed -    
Visibility 8 miles    
Events Rain , Thunderstorm    
Averages and records for this station are not official NWS values.
T = Trace of Precipitation, MM = Missing Value Source: NWS Daily Summary

Daily Weather History Graph

Daily Weather History Graph

Search for Another Location

Airport or City:

Astronomy

Jun. 05, 2019 Rise Set
Actual Time 5:10 AM EDT 8:31 PM EDT
Civil Twilight 4:35 AM EDT 9:06 PM EDT
Nautical Twilight 3:48 AM EDT 9:53 PM EDT
Astronomical Twilight 2:51 AM EDT 10:51 PM EDT
Moon 7:13 AM EDT (6/5) 10:54 PM EDT (6/5)
Length of Visible Light 16h 31m
Length of Day
15h 20m
Waxing Crescent, 6% of the Moon is Illuminated
Jun 5
Waxing Crescent
Jun 10
First Quarter
Jun 17
Full
Jun 25
Last Quarter
Jul 2
New

Hourly Weather History & Observations

Time (EDT) Temp. Dew Point Humidity Pressure Visibility Wind Dir Wind Speed Gust Speed Precip Events Conditions
12:15 AM 49.3 °F 46.9 °F 92% 29.90 in 10.0 mi SSE 4.6 mph - N/A Rain Light Rain
12:16 AM 49.3 °F 46.9 °F 92% 29.90 in 10.0 mi South 5.8 mph - N/A Rain Light Rain
12:35 AM 49.5 °F 47.3 °F 92% 29.90 in 10.0 mi SSE 5.8 mph - 0.01 in Rain Light Rain
12:36 AM 49.5 °F 47.3 °F 92% 29.90 in 10.0 mi SSE 5.8 mph - 0.01 in Rain Light Rain
12:55 AM 49.6 °F 47.7 °F 93% 29.89 in 10.0 mi SSE 5.8 mph - 0.02 in Rain Light Rain
12:56 AM 49.6 °F 47.7 °F 93% 29.89 in 10.0 mi SSE 5.8 mph - 0.02 in Rain Light Rain
1:15 AM 49.6 °F 47.8 °F 94% 29.87 in 10.0 mi Calm Calm - 0.01 in Rain Rain
1:16 AM 49.8 °F 47.8 °F 93% 29.87 in 10.0 mi Calm Calm - 0.01 in Rain Rain
1:35 AM 49.6 °F 48.2 °F 95% 29.87 in 7.0 mi SSE 4.6 mph - 0.03 in Rain Rain
1:36 AM 49.8 °F 48.2 °F 94% 29.87 in 7.0 mi SSE 4.6 mph - 0.03 in Rain Rain
1:55 AM 50.0 °F 47.8 °F 92% 29.86 in 10.0 mi SE 3.5 mph - 0.06 in Rain Rain
1:56 AM 50.0 °F 47.8 °F 92% 29.86 in 10.0 mi SSE 3.5 mph - 0.06 in Rain Rain
2:15 AM 50.0 °F 48.4 °F 94% 29.86 in 7.0 mi South 4.6 mph - 0.04 in Rain Heavy Rain
2:16 AM 50.0 °F 48.4 °F 94% 29.86 in 7.0 mi South 4.6 mph - 0.05 in Rain Heavy Rain
2:35 AM 50.0 °F 48.4 °F 94% 29.85 in 5.0 mi Calm Calm - 0.12 in Rain Rain
2:36 AM 50.0 °F 48.4 °F 94% 29.85 in 5.0 mi SSE 3.5 mph - 0.13 in Rain Rain
2:55 AM 50.0 °F 48.6 °F 95% 29.85 in 7.0 mi Calm Calm - 0.18 in Rain Rain
2:56 AM 50.0 °F 48.6 °F 95% 29.85 in 7.0 mi Calm Calm - 0.18 in Rain Rain
3:15 AM 50.0 °F 48.6 °F 95% 29.84 in 10.0 mi SSE 4.6 mph - 0.01 in Rain Light Rain
3:16 AM 50.0 °F 48.6 °F 95% 29.84 in 10.0 mi SSE 4.6 mph - 0.01 in Rain Light Rain
3:35 AM 50.2 °F 48.6 °F 94% 29.83 in 7.0 mi SSE 3.5 mph - 0.05 in Rain Rain
3:36 AM 50.2 °F 48.6 °F 94% 29.83 in 7.0 mi SSE 3.5 mph - 0.05 in Rain Rain
3:55 AM 50.5 °F 48.4 °F 92% 29.82 in 10.0 mi SE 3.5 mph - 0.05 in   Drizzle
3:56 AM 50.5 °F 48.4 °F 92% 29.82 in 10.0 mi SE 3.5 mph - 0.05 in   Drizzle
4:15 AM 50.4 °F 48.4 °F 93% 29.82 in 10.0 mi SE 4.6 mph - 0.01 in Rain Light Rain
4:16 AM 50.4 °F 48.4 °F 93% 29.82 in 10.0 mi SE 4.6 mph - 0.01 in Rain Light Rain
4:35 AM 50.4 °F 48.0 °F 92% 29.81 in 10.0 mi SSE 5.8 mph - 0.02 in Rain Light Rain
4:36 AM 50.5 °F 47.8 °F 90% 29.81 in 10.0 mi SSE 5.8 mph - 0.02 in Rain Light Rain
4:55 AM 50.5 °F 48.0 °F 91% 29.82 in 10.0 mi SSE 5.8 mph - 0.04 in Rain Rain
4:56 AM 50.5 °F 48.0 °F 91% 29.82 in 10.0 mi SSE 6.9 mph - 0.04 in Rain Rain
5:15 AM 50.7 °F 47.8 °F 90% 29.83 in 10.0 mi SSE 4.6 mph - 0.01 in Rain Light Rain
5:16 AM 50.7 °F 47.8 °F 90% 29.83 in 10.0 mi SSE 5.8 mph - 0.01 in Rain Light Rain
5:35 AM 50.4 °F 48.4 °F 93% 29.83 in 10.0 mi SSE 3.5 mph - 0.03 in Rain Light Rain
5:36 AM 50.4 °F 48.4 °F 93% 29.83 in 10.0 mi Calm Calm - 0.03 in Rain Light Rain
5:55 AM 50.4 °F 48.9 °F 95% 29.84 in 10.0 mi Calm Calm - 0.05 in Rain Light Rain
5:56 AM 50.4 °F 48.9 °F 95% 29.84 in 7.0 mi Calm Calm - 0.05 in Rain Light Rain
6:15 AM 50.7 °F 49.1 °F 94% 29.84 in 10.0 mi Calm Calm - 0.01 in Rain Rain
6:16 AM 50.9 °F 49.1 °F 94% 29.84 in 10.0 mi SSE 3.5 mph - 0.01 in Rain Rain
6:35 AM 50.5 °F 49.5 °F 96% 29.85 in 10.0 mi Calm Calm - 0.01 in   Light Drizzle
6:36 AM 50.5 °F 49.5 °F 96% 29.85 in 10.0 mi Calm Calm - 0.01 in   Overcast
6:55 AM 50.7 °F 50.0 °F 97% 29.85 in 10.0 mi Calm Calm - 0.01 in   Drizzle
6:56 AM 50.9 °F 50.0 °F 97% 29.85 in 7.0 mi Calm Calm - 0.01 in   Drizzle
7:15 AM 50.9 °F 50.2 °F 97% 29.85 in 7.0 mi Calm Calm - N/A   Light Drizzle
7:16 AM 50.9 °F 50.2 °F 97% 29.85 in 7.0 mi Calm Calm - N/A   Light Drizzle
7:35 AM 51.1 °F 50.5 °F 98% 29.86 in 10.0 mi Calm Calm - N/A   Overcast
7:36 AM 51.3 °F 50.5 °F 97% 29.86 in 7.0 mi Calm Calm - N/A   Overcast
7:55 AM 51.8 °F 51.1 °F 97% 29.86 in 7.0 mi Calm Calm - 0.01 in   Overcast
7:56 AM 51.8 °F 51.1 °F 97% 29.86 in 7.0 mi Calm Calm - 0.01 in   Overcast
8:15 AM 51.8 °F 51.3 °F 98% 29.86 in 10.0 mi Calm Calm - N/A   Overcast
8:16 AM 51.8 °F 51.3 °F 98% 29.86 in 10.0 mi Calm Calm - N/A   Overcast
8:35 AM 52.7 °F 52.0 °F 97% 29.86 in 10.0 mi Calm Calm - N/A   Overcast
8:36 AM 52.7 °F 52.0 °F 97% 29.86 in 10.0 mi Calm Calm - N/A   Overcast
8:55 AM 52.7 °F 51.8 °F 97% 29.86 in 10.0 mi Calm Calm - N/A   Overcast
8:56 AM 52.7 °F 51.8 °F 97% 29.86 in 10.0 mi Calm Calm - N/A   Overcast
9:15 AM 53.1 °F 52.0 °F 96% 29.85 in 10.0 mi Calm Calm - N/A   Overcast
9:16 AM 53.1 °F 51.8 °F 95% 29.86 in 10.0 mi Calm Calm - N/A   Overcast
9:35 AM 53.2 °F 51.3 °F 93% 29.85 in 10.0 mi Calm Calm - N/A   Overcast
9:36 AM 53.2 °F 51.4 °F 94% 29.85 in 10.0 mi Calm Calm - N/A   Overcast
9:55 AM 54.0 °F 52.2 °F 94% 29.85 in 10.0 mi Calm Calm - N/A   Overcast
9:56 AM 54.0 °F 52.2 °F 94% 29.85 in 10.0 mi Calm Calm - N/A   Overcast
10:15 AM 54.0 °F 52.0 °F 93% 29.85 in 10.0 mi Calm Calm - N/A   Overcast
10:16 AM 54.0 °F 52.2 °F 94% 29.85 in 10.0 mi Calm Calm - N/A   Overcast
10:35 AM 55.0 °F 52.5 °F 91% 29.85 in 10.0 mi Calm Calm - N/A   Overcast
10:36 AM 55.2 °F 52.7 °F 91% 29.85 in 10.0 mi Calm Calm - N/A   Overcast
10:55 AM 57.4 °F 54.3 °F 90% 29.85 in 10.0 mi Calm Calm - N/A   Overcast
10:56 AM 57.6 °F 54.3 °F 89% 29.85 in 10.0 mi Calm Calm - N/A   Overcast
11:15 AM 58.5 °F 54.3 °F 86% 29.85 in 10.0 mi Calm Calm - N/A   Overcast
11:16 AM 58.5 °F 54.1 °F 86% 29.85 in 10.0 mi SW 3.5 mph - N/A   Overcast
11:35 AM 58.3 °F 53.8 °F 85% 29.84 in 10.0 mi Calm Calm - N/A   Overcast
11:36 AM 58.3 °F 53.8 °F 85% 29.84 in 10.0 mi Calm Calm - N/A   Overcast
11:55 AM 59.2 °F 54.7 °F 85% 29.84 in 10.0 mi Calm Calm - N/A   Overcast
11:56 AM 59.2 °F 54.9 °F 86% 29.84 in 10.0 mi Calm Calm - N/A   Overcast
12:15 PM 59.4 °F 54.7 °F 84% 29.84 in 10.0 mi North 3.5 mph - N/A   Overcast
12:16 PM 59.4 °F 54.7 °F 84% 29.84 in 10.0 mi North 3.5 mph - N/A   Overcast
12:35 PM 60.1 °F 55.0 °F 83% 29.84 in 10.0 mi Calm Calm - N/A   Overcast
12:36 PM 60.1 °F 55.0 °F 83% 29.84 in 10.0 mi Calm Calm - N/A   Overcast
12:55 PM 61.0 °F 55.2 °F 81% 29.83 in 10.0 mi Calm Calm - N/A   Overcast
12:56 PM 61.2 °F 55.2 °F 81% 29.83 in 10.0 mi Calm Calm - N/A   Overcast
1:15 PM 62.4 °F 55.6 °F 78% 29.82 in 10.0 mi Calm Calm - N/A   Overcast
1:16 PM 62.6 °F 55.4 °F 77% 29.82 in 10.0 mi Calm Calm - N/A   Overcast
1:35 PM 64.6 °F 54.9 °F 71% 29.81 in 10.0 mi SSW 3.5 mph - N/A   Overcast
1:36 PM 64.8 °F 55.0 °F 71% 29.81 in 10.0 mi Calm Calm - N/A   Overcast
1:55 PM 66.2 °F 55.6 °F 69% 29.81 in 10.0 mi South 3.5 mph - N/A   Overcast
1:56 PM 66.2 °F 55.6 °F 69% 29.81 in 10.0 mi South 3.5 mph - N/A   Overcast
2:15 PM 67.5 °F 55.8 °F 66% 29.80 in 10.0 mi Calm Calm - N/A   Mostly Cloudy
2:16 PM 67.5 °F 55.6 °F 66% 29.80 in 10.0 mi Calm Calm - N/A   Mostly Cloudy
2:35 PM 68.5 °F 55.9 °F 64% 29.79 in 10.0 mi Calm Calm - N/A   Mostly Cloudy
2:36 PM 68.7 °F 55.9 °F 64% 29.79 in 10.0 mi West 3.5 mph - N/A   Mostly Cloudy
2:55 PM 69.1 °F 56.7 °F 65% 29.78 in 10.0 mi South 4.6 mph - N/A   Scattered Clouds
2:56 PM 69.3 °F 56.7 °F 64% 29.78 in 10.0 mi SSE 5.8 mph - N/A   Scattered Clouds
3:15 PM 69.6 °F 56.7 °F 63% 29.77 in 10.0 mi Calm Calm - N/A   Mostly Cloudy
3:16 PM 69.6 °F 56.7 °F 63% 29.77 in 10.0 mi Calm Calm - N/A   Mostly Cloudy
3:35 PM 69.8 °F 56.8 °F 63% 29.77 in 10.0 mi Calm Calm - N/A   Overcast
3:36 PM 69.8 °F 56.8 °F 63% 29.77 in 10.0 mi Calm Calm - N/A   Overcast
3:55 PM 68.9 °F 57.2 °F 66% 29.77 in 10.0 mi Calm Calm - N/A   Overcast
3:56 PM 68.9 °F 57.4 °F 67% 29.77 in 10.0 mi Calm Calm - N/A   Overcast
4:15 PM 67.5 °F 60.1 °F 77% 29.76 in 10.0 mi Calm Calm - N/A   Overcast
4:16 PM 67.3 °F 60.3 °F 78% 29.76 in 10.0 mi Calm Calm - N/A   Overcast
4:35 PM 64.6 °F 61.2 °F 89% 29.76 in 10.0 mi Calm Calm - N/A   Overcast
4:36 PM 64.6 °F 61.3 °F 89% 29.76 in 10.0 mi Calm Calm - N/A   Overcast
4:55 PM 64.4 °F 61.2 °F 89% 29.76 in 10.0 mi Calm Calm - N/A   Overcast
4:56 PM 64.4 °F 61.2 °F 89% 29.76 in 10.0 mi Calm Calm - N/A   Overcast
5:15 PM 66.6 °F 60.4 °F 81% 29.75 in 10.0 mi Calm Calm - N/A   Overcast
5:16 PM 66.6 °F 61.0 °F 82% 29.75 in 10.0 mi Calm Calm - N/A   Overcast
5:35 PM 65.3 °F 61.7 °F 88% 29.75 in 10.0 mi Calm Calm - N/A   Overcast
5:36 PM 65.1 °F 61.5 °F 88% 29.75 in 10.0 mi Calm Calm - N/A   Overcast
5:55 PM 63.9 °F 61.5 °F 92% 29.74 in 10.0 mi Calm Calm - N/A   Overcast
5:56 PM 63.9 °F 61.7 °F 93% 29.74 in 10.0 mi Calm Calm - N/A   Overcast
6:15 PM 63.5 °F 61.3 °F 93% 29.74 in 10.0 mi Calm Calm - N/A   Overcast
6:16 PM 63.5 °F 61.3 °F 93% 29.74 in 10.0 mi Calm Calm - N/A   Overcast
6:35 PM 63.7 °F 61.9 °F 94% 29.74 in 10.0 mi Calm Calm - N/A Rain Rain
6:36 PM 63.9 °F 61.9 °F 93% 29.74 in 10.0 mi Calm Calm - N/A Rain Rain
6:55 PM 62.2 °F 61.0 °F 96% 29.73 in 7.0 mi Calm Calm - N/A Rain Light Rain
6:56 PM 62.2 °F 61.0 °F 96% 29.74 in 7.0 mi Calm Calm - N/A Rain Light Rain
7:15 PM 61.7 °F 60.8 °F 97% 29.73 in 5.0 mi Calm Calm - N/A Rain , Thunderstorm Light Thunderstorms and Rain
7:16 PM 61.7 °F 60.8 °F 97% 29.73 in 4.0 mi Calm Calm - N/A Rain , Thunderstorm Light Thunderstorms and Rain
7:35 PM 61.2 °F 60.3 °F 97% 29.72 in 3.0 mi Calm Calm - N/A   Overcast
7:36 PM 61.2 °F 60.3 °F 97% 29.72 in 3.0 mi Calm Calm - N/A   Overcast
7:55 PM 61.5 °F 60.8 °F 97% 29.71 in 4.0 mi Calm Calm - N/A Rain Rain
7:56 PM 61.5 °F 60.8 °F 97% 29.71 in 4.0 mi Calm Calm - N/A Rain Rain
8:15 PM 61.3 °F 60.8 °F 98% 29.72 in 4.0 mi North 3.5 mph - 0.01 in Rain Rain
8:16 PM 61.3 °F 60.8 °F 98% 29.72 in 4.0 mi NNW 5.8 mph - 0.02 in Rain Rain
8:35 PM 60.8 °F 60.1 °F 97% 29.76 in 3.0 mi Calm Calm - 0.15 in Rain Heavy Rain
8:36 PM 60.8 °F 59.9 °F 97% 29.76 in 2.5 mi Calm Calm - 0.16 in Rain Heavy Rain
8:55 PM 60.8 °F 59.9 °F 97% 29.74 in 2.5 mi Calm Calm - 0.29 in Rain Heavy Rain
8:56 PM 60.8 °F 59.9 °F 97% 29.74 in 2.0 mi Calm Calm - 0.30 in Rain Heavy Rain
9:15 PM 60.8 °F 59.9 °F 97% 29.74 in 1.8 mi Calm Calm - 0.14 in Rain Heavy Rain
9:16 PM 60.8 °F 59.9 °F 97% 29.74 in 1.8 mi Calm Calm - 0.15 in Rain Heavy Rain
9:35 PM 60.8 °F 60.3 °F 98% 29.74 in 3.0 mi Calm Calm - 0.22 in Rain Heavy Rain
9:36 PM 60.8 °F 60.3 °F 98% 29.74 in 2.5 mi Calm Calm - 0.22 in Rain Rain
9:55 PM 60.8 °F 60.3 °F 98% 29.73 in 4.0 mi Calm Calm - 0.26 in Rain Heavy Rain
9:56 PM 60.8 °F 60.3 °F 98% 29.73 in 4.0 mi Calm Calm - 0.26 in Rain Heavy Rain
10:15 PM 60.8 °F 60.3 °F 98% 29.73 in 5.0 mi Calm Calm - 0.02 in Rain Light Rain
10:16 PM 60.8 °F 60.3 °F 98% 29.73 in 5.0 mi Calm Calm - 0.02 in Rain Light Rain
10:35 PM 61.0 °F 60.4 °F 98% 29.71 in 5.0 mi Calm Calm - 0.03 in Rain Rain
10:36 PM 61.0 °F 60.4 °F 98% 29.71 in 5.0 mi Calm Calm - 0.04 in Rain Rain
10:55 PM 60.6 °F 60.1 °F 98% 29.70 in 4.0 mi Calm Calm - 0.05 in Rain Light Rain
10:56 PM 60.8 °F 60.1 °F 97% 29.70 in 3.0 mi Calm Calm - 0.05 in Rain Light Rain
11:15 PM 60.8 °F 60.1 °F 97% 29.70 in 2.0 mi Calm Calm - 0.03 in Rain Heavy Rain
11:16 PM 60.8 °F 60.1 °F 97% 29.70 in 2.0 mi Calm Calm - 0.03 in Rain Rain
11:35 PM 60.8 °F 60.3 °F 98% 29.69 in 4.0 mi Calm Calm - 0.05 in Rain Light Rain
11:36 PM 60.8 °F 60.3 °F 98% 29.69 in 4.0 mi Calm Calm - 0.05 in Rain Light Rain
11:55 PM 60.8 °F 60.1 °F 97% 29.69 in 4.0 mi Calm Calm - 0.06 in Rain Rain